Regional Weather Roundup
Issued by NWS

Home | Current Version | Previous Version | Text Only | Print | Product List | Glossary On
Versions: 1 2 3 4 5 6 7 8 9 10 11 12 13 14 15 16 17 18 19 20 21 22 23 24 25 26 27 28 29 30 31 32 33 34 35 36 37 38 39 40 41 42 43 44 45 46 47 48 49 50
000
ASUS43 KOAX 250102
RWRNE

WEATHER ROUNDUP FOR NEBRASKA
NATIONAL WEATHER SERVICE OMAHA NE
700 PM CST TUE JAN 24 2017

NOTES: SATELLITE DATA IS BEING USED TO AUGMENT CLOUD COVER ABOVE
       12000 FEET.
       "FAIR" INDICATES FEW OR NO CLOUDS BELOW 12,000 FEET WITH NO
       SIGNIFICANT WEATHER AND/OR OBSTRUCTIONS TO VISIBILITY.

  * THESE STATIONS DO NOT REPORT WEATHER SUCH AS RAIN...SNOW OR FOG.

NEZ001>004-019>022-054>056-250200-
NEBRASKA PANHANDLE

CITY           SKY/WX    TMP DP  RH WIND       PRES   REMARKS
SCOTTSBLUFF    LGT SNOW  21  15  78 NW8       29.81R WCI  11
ALLIANCE       CLOUDY    18  14  84 N21       29.76R FOG     WCI   1
CHADRON        LGT SNOW  20  17  88 N12       29.85R VSB 3/4 WCI   8
KIMBALL        FLURRIES  18  17  94 N17G23    29.73R WCI   3
SIDNEY         CLOUDY    18  13  80 N23       29.73R WCI   0
$$

NEZ057>060-069>072-079>082-250200-
SOUTHWEST NEBRASKA

CITY           SKY/WX    TMP DP  RH WIND       PRES   REMARKS
NORTH PLATTE   CLOUDY    26  21  81 N22G30    29.65R WCI  12
IMPERIAL       CLOUDY    25  19  78 N29G35    29.70R WCI   8
LEXINGTON      CLOUDY    30  28  90 N13       29.60R WCI  20
MCCOOK         CLOUDY    30  25  81 NW23G30   29.64R WCI  17
OGALLALA       CLOUDY    24  19  82 N26       29.69R WCI   7
$$

NEZ005>010-023>029-035>040-094-250200-
NORTH CENTRAL NEBRASKA

CITY           SKY/WX    TMP DP  RH WIND       PRES   REMARKS
VALENTINE      LGT SNOW  21  17  84 N18G29    29.73R VSB 1   WCI   6
AINSWORTH      CLOUDY    28  28 100 N18       29.68R WCI  15
BROKEN BOW     CLOUDY    28  26  92 N21       29.60R WCI  15
O`NEILL        LGT SNOW  29  29  99 N17       29.64R VSB 1   WCI  18
ORD            CLOUDY    29  25  85 N15       29.59R WCI  18
THEDFORD       LGT SNOW  24  22  93 N23G29    29.68R WCI   8
$$

NEZ041-046>049-061>064-073>077-083>087-250200-
SOUTH CENTRAL NEBRASKA

CITY           SKY/WX    TMP DP  RH WIND       PRES   REMARKS
GRAND ISLAND   CLOUDY    30  30 100 N8        29.57R FOG     WCI  22
AURORA         CLOUDY    31  31 100 N6        29.56R FOG     WCI  25
HASTINGS       CLOUDY    31  30  96 N8        29.57R WCI  23
HEBRON         CLOUDY    33  32  96 NW6       29.55R FOG     WCI  27
HOLDREGE       CLOUDY    31  28  90 NW7       29.58R WCI  24
KEARNEY *      CLOUDY    30  25  80 NW9       29.58R WCI  22
YORK           CLOUDY    32  32 100 N6        29.56R FOG     WCI  26
$$

NEZ011>018-030>034-042>045-250200-
NORTHEAST NEBRASKA

CITY           SKY/WX    TMP DP  RH WIND       PRES   REMARKS
NORFOLK        CLOUDY    30  27  88 NE8       29.59R WCI  22
ALBION         CLOUDY    31  28  88 NE12      29.59R FOG     WCI  22
BLAIR          CLOUDY    32  31  96 NE12      29.55S FOG     WCI  23
FREMONT        CLOUDY    32  32 100 NE5       29.57R FOG     WCI  27
TEKAMAH        CLOUDY    32  30  92 NE13      29.59S FOG     WCI  22
WAYNE          LGT SNOW  31  30  96 NE13      29.60S WCI  21
$$

NEZ050>053-065>068-078-088>093-250200-
SOUTHEAST NEBRASKA

CITY           SKY/WX    TMP DP  RH WIND       PRES   REMARKS
LINCOLN        CLOUDY    33  32  96 NE8       29.56R FOG     WCI  26
OMAHA EPPLEY   DRIZZLE   33  28  81 NE6       29.57R FOG     WCI  28
BEATRICE       CLOUDY    35  33  92 N5        29.53R WCI  31
FALLS CITY     PTCLDY    39  34  82 NE7       29.50R WCI  34
NEBRASKA CITY  CLOUDY    35  32  88 NE10      29.52S WCI  27
PLATTSMOUTH    CLOUDY    33  30  87 NE9       29.54R WCI  25
$$

NEZ044-045-051>053-067-250200-
OMAHA AREA

CITY           SKY/WX    TMP DP  RH WIND       PRES   REMARKS
OMAHA EPPLEY   DRIZZLE   33  28  81 NE6       29.57R FOG     WCI  28
BLAIR          CLOUDY    32  31  96 NE12      29.55S FOG     WCI  23
FREMONT        CLOUDY    32  32 100 NE5       29.57R FOG     WCI  27
MILLARD        CLOUDY    35  32  90 NE3       29.57R FOG
OFFUTT AFB     DRIZZLE   33  33  98 NE9       29.56R WCI  26
PLATTSMOUTH    CLOUDY    33  30  87 NE9       29.54R WCI  25
WAHOO          CLOUDY    32  31  97 NE7       29.56R FOG     WCI  26
$$



USA.gov is the U.S. government's official web portal to all federal, state and local government web resources and services.